User: anonymous   Login
Location: Unspecified
(0.0000°N, 0.0000°E)
Time: 17:00:24
(UTC+00:00)
Language:

FORMOSAT 3F - Orbit

View from above orbital plane
View from above orbital plane
View from above satellite
View from above satellite

Ground track
Ground track

The orbit data is extracted from the following two-line orbital elements,

1 29052U 06011F   17265.50218378  .00000034  00000-0  29601-4 0  9990
2 29052  72.0353  41.8105 0041884 297.4919  62.1963 14.28708055597834
Epoch (UTC): 22 September 2017 12:03:08
Eccentricity: 0.0041884
inclination: 72.0353°
perigee height: 766 km
apogee height: 826 km
right ascension of ascending node: 41.8105°
argument of perigee: 297.4919°
revolutions per day: 14.28708055
mean anomaly at epoch: 62.1963°
orbit number at epoch: 59783

The dashed part of the orbit path shows where the satellite is in the earth's shadow,  

DLR